Kelso-Longview, WA
on Monday, December 3, 2012

Monday
Previous Day Next Day
Daily Summary
 ActualAverage (KSPB)Record (KSPB)
Temperature
Mean Temperature °F °F  
Max Temperature 53°F °F 57°F (2007)
Min Temperature 48°F °F 26°F (2011)
Degree Days
Heating Degree Days 14    
Month to date heating degree days  
Since 1 July heating degree days  
Cooling Degree Days 0    
Month to date cooling degree days  
Year to date cooling degree days  
Moisture
Dew Point 44°F   
Average Humidity 79    
Maximum Humidity 87    
Minimum Humidity 67    
Precipitation
Precipitation 0.19 in in 2.46 in (2007)
Month to date precipitation  
Year to date precipitation  
Wind
Wind Speed 12 mph   
Max Wind Speed 16 mph   
Max Gust Speed 25 mph   
Visibility 10 miles   
Events     

Key: T is trace of precipitation, MM is missing value
Source: NWS Daily Summary
Time(PST)TemperatureDew PointHumidity Pressure Visibility Wind DirectionWind SpeedGust SpeedPrecipitationEvents Conditions
12:15 AM 48.2°F 42.8°F 82% 29.89 in 10.0 miles South 10.4 mph - N/A   Overcast
12:35 AM 48.2°F 42.8°F 82% 29.89 in 10.0 miles SSE 11.5 mph 17.3 mph N/A   Overcast
12:55 AM 48.2°F 42.8°F 82% 29.89 in 10.0 miles SSE 15.0 mph 19.6 mph N/A   Overcast
1:15 AM 48.2°F 42.8°F 82% 29.90 in 10.0 miles SSE 12.7 mph - N/A   Overcast
1:35 AM 48.2°F 42.8°F 82% 29.91 in 10.0 miles SSE 10.4 mph - N/A   Overcast
1:55 AM 48.2°F 42.8°F 82% 29.92 in 10.0 miles SSE 10.4 mph - N/A   Mostly Cloudy
2:15 AM 48.2°F 42.8°F 82% 29.93 in 10.0 miles SSE 11.5 mph - N/A   Mostly Cloudy
2:35 AM 48.2°F 42.8°F 82% 29.94 in 10.0 miles SSE 11.5 mph - N/A   Overcast
2:55 AM 48.2°F 42.8°F 82% 29.94 in 10.0 miles SSE 11.5 mph - N/A   Mostly Cloudy
3:15 AM 48.2°F 42.8°F 82% 29.95 in 10.0 miles SSE 11.5 mph 17.3 mph N/A   Overcast
3:35 AM 48.2°F 42.8°F 82% 29.94 in 10.0 miles SSE 12.7 mph 17.3 mph N/A   Overcast
3:55 AM 48.2°F 42.8°F 82% 29.95 in 10.0 miles SSE 12.7 mph 18.4 mph N/A   Overcast
4:15 AM 48.2°F 42.8°F 82% 29.95 in 10.0 miles SE 11.5 mph - N/A   Overcast
4:35 AM 48.2°F 42.8°F 82% 29.95 in 10.0 miles SE 12.7 mph 23.0 mph N/A   Overcast
4:55 AM 48.2°F 42.8°F 82% 29.95 in 10.0 miles SSE 15.0 mph 21.9 mph N/A   Overcast
5:15 AM 48.2°F 42.8°F 82% 29.95 in 10.0 miles SE 13.8 mph 20.7 mph N/A   Overcast
5:35 AM 48.2°F 42.8°F 82% 29.95 in 10.0 miles SE 15.0 mph 23.0 mph N/A   Overcast
5:55 AM 48.2°F 42.8°F 82% 29.95 in 10.0 miles SE 16.1 mph 20.7 mph N/A   Overcast
6:15 AM 48.2°F 42.8°F 82% 29.96 in 10.0 miles SSE 13.8 mph 21.9 mph N/A   Overcast
6:35 AM 48.2°F 42.8°F 82% 29.96 in 10.0 miles SE 13.8 mph 21.9 mph N/A   Overcast
7:15 AM 48.2°F 42.8°F 82% 29.97 in 10.0 miles SSE 13.8 mph 23.0 mph N/A   Overcast
7:35 AM 48.2°F 42.8°F 82% 29.98 in 10.0 miles SSE 11.5 mph 23.0 mph N/A   Overcast
7:55 AM 48.2°F 42.8°F 82% 29.98 in 10.0 miles SSE 13.8 mph 19.6 mph 0.01 in   Mostly Cloudy
8:15 AM 48.2°F 44.6°F 87% 29.99 in 10.0 miles SSE 13.8 mph - N/A   Mostly Cloudy
8:35 AM 48.2°F 44.6°F 87% 29.99 in 10.0 miles SSE 12.7 mph 19.6 mph N/A   Overcast
8:55 AM 48.2°F 44.6°F 87% 29.99 in 10.0 miles SSE 13.8 mph 18.4 mph N/A   Overcast
9:15 AM 48.2°F 44.6°F 87% 30.00 in 10.0 miles SSE 13.8 mph 20.7 mph N/A   Overcast
9:35 AM 48.2°F 44.6°F 87% 30.00 in 10.0 miles SSE 11.5 mph 17.3 mph N/A   Overcast
9:55 AM 50.0°F 44.6°F 82% 30.01 in 10.0 miles SSE 12.7 mph 19.6 mph N/A   Overcast
10:15 AM 50.0°F 44.6°F 82% 30.02 in 10.0 miles SSE 11.5 mph 18.4 mph N/A   Overcast
10:35 AM 50.0°F 44.6°F 82% 30.02 in 10.0 miles SSE 10.4 mph 20.7 mph N/A   Overcast
10:55 AM 50.0°F 44.6°F 82% 30.02 in 10.0 miles SSE 8.1 mph - N/A   Overcast
11:15 AM 50.0°F 44.6°F 82% 30.02 in 10.0 miles SSE 11.5 mph 17.3 mph N/A   Overcast
11:35 AM 50.0°F 44.6°F 82% 30.02 in 10.0 miles SSE 13.8 mph 20.7 mph N/A   Overcast
11:55 AM 50.0°F 44.6°F 82% 30.02 in 10.0 miles SSE 12.7 mph 19.6 mph N/A   Overcast
12:15 PM 50.0°F 46.4°F 87% 30.01 in 8.0 miles SSE 10.4 mph - N/A   Overcast
12:35 PM 50.0°F 46.4°F 87% 30.01 in 8.0 miles SE 10.4 mph 16.1 mph N/A   Mostly Cloudy
12:55 PM 50.0°F 46.4°F 87% 30.00 in 8.0 miles SSE 9.2 mph 17.3 mph N/A   Overcast
1:15 PM 51.8°F 46.4°F 82% 30.00 in 5.0 miles SSE 13.8 mph 19.6 mph 0.01 in   Overcast
1:35 PM 51.8°F 46.4°F 82% 29.98 in 8.0 miles SSE 16.1 mph 23.0 mph 0.01 in   Overcast
1:55 PM 51.8°F 44.6°F 76% 29.98 in 10.0 miles SE 12.7 mph 20.7 mph 0.02 in   Overcast
2:15 PM 51.8°F 44.6°F 76% 29.98 in 10.0 miles SSE 12.7 mph 23.0 mph N/A   Mostly Cloudy
2:35 PM 51.8°F 44.6°F 76% 29.97 in 10.0 miles SE 11.5 mph 21.9 mph N/A   Overcast
2:55 PM 51.8°F 42.8°F 71% 29.97 in 10.0 miles SSE 12.7 mph 17.3 mph N/A   Overcast
3:15 PM 51.8°F 44.6°F 76% 29.97 in 10.0 miles SSE 15.0 mph 20.7 mph N/A   Mostly Cloudy
3:35 PM 51.8°F 44.6°F 76% 29.98 in 10.0 miles SE 15.0 mph 23.0 mph N/A   Overcast
3:55 PM 51.8°F 42.8°F 71% 29.96 in 10.0 miles SSE 11.5 mph - N/A   Overcast
4:15 PM 51.8°F 44.6°F 76% 29.96 in 10.0 miles SSE 10.4 mph 17.3 mph N/A   Mostly Cloudy
4:35 PM 51.8°F 44.6°F 76% 29.95 in 10.0 miles SSE 12.7 mph 21.9 mph N/A   Overcast
4:55 PM 51.8°F 42.8°F 71% 29.94 in 10.0 miles SSE 15.0 mph 23.0 mph N/A   Overcast
5:15 PM 51.8°F 42.8°F 71% 29.93 in 10.0 miles SE 15.0 mph 21.9 mph N/A   Overcast
5:35 PM 53.6°F 42.8°F 67% 29.93 in 10.0 miles SSE 12.7 mph 19.6 mph N/A   Overcast
5:55 PM 53.6°F 42.8°F 67% 29.92 in 10.0 miles SSE 9.2 mph 23.0 mph N/A   Overcast
6:15 PM 51.8°F 42.8°F 71% 29.92 in 10.0 miles SSE 12.7 mph 20.7 mph N/A   Mostly Cloudy
6:35 PM 51.8°F 42.8°F 71% 29.91 in 10.0 miles SSE 8.1 mph 19.6 mph N/A   Overcast
6:55 PM 51.8°F 42.8°F 71% 29.90 in 10.0 miles SSE 6.9 mph - N/A   Overcast
7:15 PM 51.8°F 42.8°F 71% 29.88 in 10.0 miles SE 4.6 mph - N/A   Overcast
7:35 PM 53.6°F 42.8°F 67% 29.87 in 10.0 miles SSE 6.9 mph - N/A   Overcast
7:55 PM 51.8°F 42.8°F 71% 29.85 in 10.0 miles South 5.8 mph - N/A   Overcast
8:15 PM 51.8°F 42.8°F 71% 29.83 in 10.0 miles SE 4.6 mph - N/A   Overcast
8:35 PM 51.8°F 42.8°F 71% 29.82 in 10.0 miles Calm Calm - N/A   Overcast
8:55 PM 51.8°F 42.8°F 71% 29.79 in 10.0 miles SE 6.9 mph - N/A   Overcast
9:15 PM 51.8°F 42.8°F 71% 29.77 in 10.0 miles SE 5.8 mph - N/A   Overcast
9:35 PM 51.8°F 42.8°F 71% 29.76 in 10.0 miles SE 8.1 mph - N/A   Overcast
9:55 PM 50.0°F 42.8°F 76% 29.74 in 10.0 miles SE 4.6 mph - N/A   Overcast
10:15 PM 50.0°F 42.8°F 76% 29.73 in 10.0 miles SE 4.6 mph - N/A   Overcast
10:35 PM 48.2°F 42.8°F 82% 29.72 in 10.0 miles SSE 6.9 mph - N/A   Overcast
10:55 PM 48.2°F 42.8°F 82% 29.72 in 10.0 miles SE 8.1 mph - 0.02 in   Overcast
11:15 PM 48.2°F 42.8°F 82% 29.70 in 10.0 miles SSE 11.5 mph 23.0 mph 0.03 in   Overcast
11:35 PM 48.2°F 42.8°F 82% 29.67 in 10.0 miles SE 16.1 mph 24.2 mph 0.08 in   Overcast
11:55 PM 48.2°F 41.0°F 76% 29.65 in 10.0 miles SE 15.0 mph 25.3 mph 0.14 in   Overcast
Moon Phase
Dec. 03 Dec. 06 Dec. 13 Dec. 20 Dec. 28
Sunrise:07:36 AM (PST) Moon Rise:09:28 PM (PST)12/3
Sunset:04:26 PM (PST) Moon Set:10:54 AM (PST)12/3

Copyright © 2014 The Weather Underground, Inc.